Wind_Speed
14 9 5 9 8 10 9 11 10 9 10 8 6 8 9 9 6 5 3 3 8 9 11 11 12 14 12 12 11 12 10 9 7 7 8 10 12 12 15 16 16 16 16
9 12 5 7 9 11 9 6 10 15 16 13 9 7 9 8 9 7 4 5 6 8 9 10 12 13 12 13 12 11 10 9 8 7 8 10 12 12 13 13 15 15 15
15 14 13 7 11 7 9 14 10 9 8 6 9 8 9 10 12 15 16 16 9 7 7 10 12 13 13 13 11 11 10 10 9 8 8 9 11 12 12 12 12 13 12
12 18 18 15 6 9 10 9 8 6 7 7 9 10 9 14 16 17 18 9 8 6 7 9 11 13 14 14 13 13 12 12 10 9 8 9 11 11 11 12 11 11 11
10 10 12 13 17 11 14 12 11 8 5 6 6 8 13 9 16 22 22 18 12 12 11 10 13 14 15 15 15 15 14 13 12 10 9 9 11 12 12 12 12 11 10
9 11 12 13 13 15 13 12 10 10 9 7 6 7 9 11 13 22 21 25 21 16 11 24 16 17 16 16 16 17 16 16 15 13 12 11 11 13 13 13 12 12 11
15 12 11 12 13 13 17 16 11 13 11 8 7 7 6 7 9 10 16 20 20 22 11 11 18 19 14 18 18 19 18 17 16 16 14 14 13 13 15 14 14 13 12
19 16 14 13 10 13 14 12 12 9 10 11 12 7 5 2 8 11 15 17 18 22 25 11 17 24 17 18 19 20 20 19 19 18 17 17 16 15 16 16 16 15 14
18 17 15 14 12 13 14 13 12 14 13 12 12 11 5 5 6 11 10 12 17 19 22 26 18 16 21 22 24 23 21 20 21 21 21 20 19 18 18 18 18 18 17
17 17 18 16 16 15 13 16 15 16 14 12 11 13 13 9 8 6 10 6 12 14 18 23 22 26 26 23 22 24 23 27 26 25 24 23 22 21 20 19 19 19 18
15 20 19 19 18 17 17 17 18 17 10 9 13 13 12 12 14 12 9 12 14 10 12 21 21 27 34 30 27 26 22 22 25 26 26 26 25 24 22 22 22 21 20
19 17 19 22 20 18 18 17 17 19 17 16 16 17 17 15 11 13 13 10 10 11 15 17 23 26 29 32 32 25 25 25 23 23 26 28 28 26 25 24 24 23 22
20 19 17 18 19 20 19 18 18 18 18 18 17 18 15 15 12 16 15 13 14 12 12 15 18 19 22 27 36 34 29 30 28 26 26 28 29 29 28 27 26 25 24
19 22 23 23 20 17 19 18 17 19 20 19 18 19 18 17 18 14 18 16 13 10 14 15 14 17 15 21 27 36 30 29 31 29 28 28 31 31 31 30 28 27 25
20 18 16 17 18 17 17 19 19 18 18 17 16 16 18 19 18 17 16 18 20 16 14 12 15 14 16 17 22 24 31 29 34 31 32 32 32 35 34 33 32 30 29
24 20 17 20 20 22 22 20 20 17 20 18 16 18 19 18 19 18 16 14 18 18 18 13 11 11 13 15 15 21 25 29 28 32 35 34 34 36 38 39 38 36 34
23 24 27 24 25 25 20 18 19 20 22 20 18 17 17 17 14 13 12 12 15 18 20 16 15 14 16 15 17 20 19 24 32 35 35 33 32 33 38 40 41 42 42
29 27 26 27 28 26 20 19 17 17 17 17 16 15 15 13 12 11 9 11 12 13 15 16 12 10 17 19 21 21 19 22 24 30 34 34 34 33 34 38 42 42 43
25 25 26 27 24 24 20 19 18 17 17 18 16 15 15 11 10 9 7 5 4 4 7 9 10 9 13 13 17 21 22 26 27 27 27 28 32 34 31 31 37 42 44
24 24 24 24 21 19 20 19 18 16 15 15 17 14 10 10 12 8 8 6 6 9 10 9 10 9 10 15 14 17 24 23 23 28 27 29 28 29 31 32 31 34 40
26 24 22 23 22 19 16 18 15 16 15 16 15 12 12 14 13 12 13 10 11 12 7 8 11 11 16 13 15 16 19 19 25 26 26 26 31 30 32 31 32 33 34
26 26 21 20 22 18 17 17 15 16 12 12 12 10 10 12 11 11 12 13 14 13 13 15 15 13 13 15 11 11 13 15 22 22 24 27 28 33 31 33 30 31 33
25 28 22 21 21 19 18 15 15 14 11 11 12 13 11 12 10 9 9 11 14 16 15 14 16 14 17 10 11 12 13 16 17 18 19 28 25 25 29 32 35 35 34
24 23 22 20 19 18 17 18 18 15 16 13 11 11 10 12 11 12 12 11 13 13 11 11 14 16 16 15 15 16 16 16 17 17 18 25 23 28 29 30 30 35 38
23 23 21 18 19 16 18 17 17 17 17 17 15 14 16 13 10 14 15 16 16 15 13 17 17 18 18 18 18 18 19 17 16 17 14 18 21 22 23 28 27 26 34
22 21 18 17 19 18 17 16 14 16 16 18 21 17 16 16 16 16 18 19 20 22 18 17 15 19 21 20 17 14 11 14 15 17 16 17 17 18 22 21 19 23 25
Wind_Direction
190 208 177 153 182 145 191 186 178 158 137 160 190 199 197 189 190 127 163 197 234 201 180 171 169 172 172 166 169 154 148 144 142 126 127 124 118 121 122 121 120 120 118
169 185 171 158 188 172 183 195 173 189 202 196 212 223 211 189 197 211 212 197 210 225 200 187 182 181 183 183 180 168 161 163 159 147 142 136 131 131 130 128 126 124 122
188 189 182 215 188 196 214 192 196 208 209 248 241 232 244 232 199 203 219 201 190 221 226 209 197 192 190 193 190 186 177 177 174 168 161 154 144 145 142 139 135 132 130
207 200 201 193 168 189 237 237 250 242 247 280 290 243 241 254 226 214 207 206 196 227 232 233 227 208 202 203 199 194 190 186 184 187 181 173 164 161 157 153 150 147 143
207 198 181 192 192 187 223 243 252 242 236 268 281 266 272 277 232 227 219 213 223 216 218 241 234 229 213 208 205 200 198 197 193 195 194 194 185 177 173 171 166 165 163
222 178 180 180 195 196 230 229 251 250 237 257 254 268 281 254 272 239 233 233 233 228 233 229 226 227 220 217 211 207 205 207 201 204 203 201 202 195 189 186 184 183 181
210 205 188 192 169 218 235 249 257 227 249 246 236 287 279 264 253 242 240 242 233 216 217 187 221 218 228 228 219 215 212 212 213 211 213 210 207 210 203 200 198 200 199
208 216 201 212 209 207 236 239 244 236 231 232 231 253 260 243 250 236 242 246 239 225 220 227 241 228 225 236 227 223 222 220 216 218 222 218 216 216 215 211 209 210 212
221 217 213 208 223 212 231 249 240 233 230 230 228 235 218 207 211 217 237 249 247 245 233 223 234 227 235 228 228 221 224 230 233 224 224 225 221 221 223 220 217 219 221
231 222 222 216 224 222 233 250 258 249 229 236 241 244 240 228 197 204 230 234 245 247 241 229 229 212 216 226 231 241 234 236 236 237 226 228 227 225 227 228 225 224 226
251 234 232 237 242 240 238 247 254 250 247 243 247 260 260 247 239 234 221 234 240 239 242 228 228 220 218 224 232 239 237 246 232 235 232 230 230 230 230 230 231 229 230
244 249 245 244 248 249 247 242 245 254 264 268 259 252 256 258 262 246 231 235 248 248 245 240 239 234 229 223 218 221 221 244 245 239 235 235 232 231 232 233 233 234 233
234 245 248 245 252 256 253 249 248 252 254 259 254 258 260 260 261 265 247 237 259 247 241 240 245 245 233 227 220 227 233 232 244 244 238 240 237 234 234 235 235 237 238
236 239 249 246 250 255 250 251 252 257 255 258 261 262 264 258 264 287 252 253 239 249 251 251 245 247 248 233 227 227 232 234 235 243 243 242 243 238 235 237 237 238 239
234 239 256 241 248 253 254 256 258 254 257 262 262 261 263 257 257 273 276 254 240 246 244 254 247 252 255 248 239 230 230 232 234 241 244 246 245 241 239 236 239 241 242
221 217 238 241 242 253 264 259 254 252 259 266 263 260 263 276 265 271 285 261 240 251 248 258 255 257 261 243 238 230 232 235 233 238 246 246 247 246 243 240 242 242 242
235 236 232 236 243 253 258 257 256 248 252 260 261 262 269 275 277 273 276 256 242 246 255 268 272 267 245 245 242 237 238 235 240 242 241 243 244 248 247 245 243 244 245
235 237 241 241 248 256 258 260 265 257 259 258 256 254 270 271 271 273 258 251 246 252 264 278 282 271 255 259 250 240 244 246 252 252 250 251 248 247 250 249 246 246 246
240 237 240 248 250 251 250 254 260 259 255 257 258 254 263 258 257 256 244 232 235 269 272 284 294 286 283 276 261 251 252 252 251 253 254 254 249 248 251 255 252 249 247
246 246 238 247 253 252 245 252 256 260 264 260 254 260 252 248 239 238 236 242 226 231 255 281 305 318 300 292 270 262 255 256 256 253 255 254 252 252 253 251 253 254 252
245 252 247 232 247 255 251 247 254 258 263 255 252 244 240 245 231 220 221 209 229 249 244 275 284 280 291 296 290 281 274 268 254 252 259 253 254 256 249 249 249 252 254
235 246 246 232 235 242 244 241 242 254 255 250 258 254 248 251 250 248 241 224 230 245 250 258 278 287 290 292 301 302 291 286 277 262 253 257 253 257 255 256 253 261 258
234 235 243 227 227 230 233 241 240 250 248 254 260 245 244 255 271 280 274 255 249 259 269 278 288 311 303 289 288 297 295 293 289 280 272 265 261 258 265 262 261 263 259
234 229 231 231 230 228 226 228 235 241 235 240 257 261 256 225 251 271 278 280 277 276 275 292 307 310 309 313 303 297 290 289 290 294 283 274 270 265 273 269 265 255 255
228 223 232 227 227 230 234 229 229 235 236 228 241 250 248 249 241 240 253 260 276 277 274 295 294 293 302 306 307 294 294 295 291 297 294 288 289 287 284 283 276 259 259
223 214 226 222 232 234 239 241 243 238 235 227 233 248 256 250 238 242 250 258 263 262 271 271 279 279 287 295 300 309 304 291 297 300 303 290 301 295 299 301 284 278 272
Height
1585 1586 1587 1585 1586 1590 1596 1593 1590 1604 1599 1599 1601 1604 1604 1606 1605 1604 1607 1610 1612 1611 1611 1611 1612 1615 1617 1619 1620 1620 1622 1623 1625 1625 1626 1627 1628 1629 1630 1631 1631 1632 1633
1582 1583 1584 1585 1586 1590 1595 1595 1597 1601 1600 1598 1599 1601 1602 1605 1606 1606 1605 1609 1612 1614 1612 1612 1613 1614 1616 1619 1620 1623 1623 1624 1625 1626 1627 1628 1629 1631 1633 1633 1634 1635 1635
1580 1581 1584 1585 1587 1588 1592 1593 1596 1597 1597 1596 1596 1598 1598 1601 1605 1607 1605 1605 1611 1614 1613 1612 1613 1615 1617 1618 1621 1623 1624 1625 1626 1627 1628 1629 1630 1632 1634 1635 1636 1637 1637
1579 1580 1583 1585 1588 1588 1588 1590 1592 1593 1594 1594 1593 1595 1594 1597 1600 1604 1605 1607 1609 1611 1611 1614 1616 1615 1616 1618 1620 1622 1623 1626 1627 1628 1629 1630 1631 1633 1634 1636 1637 1638 1639
1578 1579 1581 1584 1586 1589 1587 1589 1590 1591 1593 1593 1593 1593 1592 1594 1595 1597 1601 1604 1607 1606 1607 1611 1615 1617 1615 1616 1618 1620 1623 1625 1626 1628 1629 1630 1631 1633 1634 1636 1637 1639 1640
1577 1579 1580 1583 1584 1587 1586 1589 1593 1593 1591 1590 1591 1593 1591 1591 1591 1591 1593 1597 1602 1605 1606 1603 1613 1614 1614 1615 1617 1619 1621 1624 1625 1627 1628 1629 1631 1632 1634 1635 1637 1638 1640
1577 1579 1580 1581 1583 1584 1585 1587 1587 1590 1588 1589 1590 1590 1591 1590 1591 1590 1591 1592 1597 1602 1604 1601 1608 1610 1611 1613 1615 1617 1619 1621 1624 1626 1627 1628 1629 1631 1633 1634 1636 1638 1639
1574 1576 1578 1580 1582 1584 1584 1584 1584 1585 1586 1587 1588 1590 1590 1590 1588 1590 1590 1591 1594 1598 1602 1604 1604 1602 1606 1610 1612 1615 1616 1618 1621 1623 1625 1627 1628 1629 1631 1632 1634 1636 1638
1571 1574 1576 1578 1580 1581 1582 1582 1580 1583 1582 1584 1586 1588 1588 1587 1586 1588 1588 1586 1589 1594 1595 1599 1600 1601 1602 1606 1608 1610 1612 1615 1618 1620 1622 1624 1626 1627 1629 1630 1632 1634 1636
1568 1570 1573 1575 1577 1578 1581 1580 1579 1579 1580 1579 1583 1584 1584 1585 1584 1586 1587 1587 1587 1587 1592 1594 1596 1599 1600 1603 1605 1607 1609 1611 1614 1616 1618 1620 1623 1625 1626 1628 1629 1631 1633
1565 1567 1569 1571 1573 1575 1576 1576 1575 1575 1573 1577 1580 1581 1581 1581 1582 1583 1584 1584 1585 1585 1585 1589 1591 1593 1596 1598 1602 1602 1605 1608 1610 1611 1614 1617 1619 1621 1623 1625 1626 1628 1630
1562 1564 1566 1567 1569 1571 1570 1572 1574 1572 1573 1576 1579 1578 1578 1578 1578 1580 1581 1581 1583 1583 1575 1583 1585 1586 1590 1593 1595 1597 1600 1603 1605 1607 1609 1613 1615 1617 1619 1621 1622 1624 1625
1558 1558 1560 1562 1564 1566 1569 1570 1571 1571 1572 1573 1574 1574 1576 1574 1575 1576 1577 1579 1579 1579 1578 1577 1579 1581 1583 1586 1589 1591 1594 1597 1600 1602 1605 1608 1610 1613 1615 1617 1619 1620 1621
1556 1556 1556 1558 1560 1563 1564 1565 1566 1567 1568 1569 1570 1570 1570 1570 1571 1571 1572 1574 1575 1575 1575 1574 1574 1576 1576 1579 1581 1585 1589 1591 1594 1597 1600 1602 1604 1607 1610 1612 1614 1616 1617
1552 1553 1554 1555 1556 1558 1559 1560 1561 1563 1563 1564 1564 1565 1565 1566 1566 1566 1567 1568 1570 1571 1571 1572 1571 1572 1572 1572 1574 1578 1581 1583 1587 1591 1593 1596 1598 1600 1603 1606 1608 1611 1612
1548 1550 1551 1551 1552 1554 1555 1556 1557 1558 1559 1559 1560 1560 1561 1562 1562 1562 1562 1563 1565 1567 1568 1567 1568 1568 1567 1567 1570 1571 1574 1577 1579 1582 1585 1588 1591 1593 1596 1599 1602 1604 1606
1542 1545 1547 1548 1549 1550 1552 1552 1552 1554 1554 1555 1557 1556 1557 1557 1557 1558 1559 1559 1560 1563 1562 1564 1565 1565 1565 1565 1565 1567 1570 1572 1573 1576 1578 1581 1584 1585 1587 1590 1593 1596 1599
1536 1539 1541 1543 1544 1545 1547 1549 1549 1551 1551 1551 1553 1553 1554 1554 1554 1554 1555 1556 1555 1558 1560 1559 1561 1561 1561 1561 1559 1562 1565 1567 1567 1568 1570 1573 1576 1578 1580 1582 1584 1586 1589
1531 1534 1535 1537 1539 1541 1543 1545 1545 1546 1547 1548 1549 1550 1550 1551 1550 1552 1553 1554 1554 1555 1556 1557 1558 1558 1558 1557 1558 1560 1560 1562 1563 1563 1565 1566 1568 1571 1572 1574 1575 1577 1579
1526 1529 1531 1532 1534 1537 1539 1540 1541 1542 1543 1545 1545 1546 1547 1548 1549 1549 1550 1551 1553 1554 1554 1555 1556 1555 1555 1553 1553 1553 1554 1555 1555 1556 1558 1559 1561 1563 1564 1566 1567 1568 1569
1522 1524 1526 1528 1530 1532 1534 1536 1537 1538 1540 1540 1541 1542 1543 1544 1545 1546 1547 1549 1550 1551 1551 1552 1553 1553 1552 1550 1549 1549 1548 1548 1549 1551 1551 1550 1553 1555 1555 1556 1557 1559 1560
1518 1520 1521 1523 1526 1528 1530 1532 1534 1535 1536 1537 1539 1540 1541 1542 1542 1543 1544 1546 1547 1547 1548 1549 1549 1548 1548 1546 1546 1545 1544 1544 1544 1544 1544 1544 1547 1545 1547 1547 1549 1550 1551
1513 1515 1518 1520 1522 1524 1526 1528 1530 1531 1532 1534 1536 1538 1539 1539 1540 1541 1542 1543 1543 1543 1544 1544 1544 1544 1543 1543 1542 1541 1541 1540 1539 1539 1539 1537 1539 1539 1540 1540 1540 1540 1541
1508 1511 1515 1517 1519 1520 1521 1524 1527 1529 1529 1530 1532 1534 1535 1536 1538 1539 1540 1539 1540 1541 1541 1541 1540 1540 1540 1540 1540 1538 1537 1536 1535 1534 1534 1530 1531 1532 1533 1531 1531 1531 1532
1504 1507 1511 1514 1517 1520 1520 1520 1521 1523 1525 1526 1528 1530 1531 1531 1534 1535 1536 1537 1536 1536 1537 1537 1537 1536 1535 1536 1536 1535 1534 1533 1530 1529 1528 1527 1525 1524 1524 1522 1522 1521 1523
1501 1505 1508 1511 1515 1518 1519 1519 1519 1520 1519 1521 1523 1524 1526 1526 1527 1529 1531 1532 1531 1532 1533 1534 1532 1533 1534 1533 1532 1531 1530 1529 1528 1525 1526 1524 1522 1521 1517 1514 1514 1516 1515